Air Resources Laboratory banner image
Air Resources Laboratory web site National Oceanic and Atmospheric Administration (NOAA)

ky zone


NYZ176-178-MAZ106-OHZ011-021-055-MIZ076-KYZ091-ILZ014-INZ047-
MNZ060-ONZ431-132300-

...Gateway Observations for Savannah International...

CITY           SKY/WX    TMP DP  RH WIND       PRES   REMARKS
Savannah Arpt  PTSUNNY   84  68  58 E9        30.01F
Atlanta        PTSUNNY   82  65  56 SE7       30.06F
Charlotte      MOSUNNY   84  57  39 N9        30.07F
Dallas DFW     MOSUNNY   96  61  31 CALM      29.95F HX  96
Houston Bush   PTSUNNY   89  75  63 SE20G28   29.92S HX  99
Wash National  MOSUNNY   81  48  31 E5        30.06F
Wash Dulles    PTSUNNY   81  50  33 NW8       30.08S
Baltimore      MOSUNNY   84  48  28 NW7       30.05F
Philadelphia   MOSUNNY   83  45  26 CALM      30.04F
Newark         MOSUNNY   80  46  30 N7G17     30.03F
Laguardia      MOSUNNY   79  46  31 NE8       30.04S
J F K          MOSUNNY   80  47  31 VRB5      30.05S
Boston         MOSUNNY   67  58  72 SE6       30.05R
Pittsburg      CLOUDY    74  47  38 NW6       30.10F
Akron          PTSUNNY   75  52  44 W6        30.12S
Cleveland      CLOUDY    73  53  49 NE7       30.10F
Cincinnati     PTSUNNY   80  58  46 S6        30.06F
Columbus       PTSUNNY   76  56  50 E3        30.08F
Detroit        CLOUDY    69  51  52 SW8       30.12S
Chicago O'Hare PTSUNNY   78  59  51 S13       29.96S
Minneapolis    CLOUDY    70  59  68 N12G26    30.01R
Indianapolis   CLOUDY    76  56  49 S8        30.04F
Toronto Canada PTSUNNY   77  41  27 SE9       30.07F


NYZ176-178-MAZ106-OHZ011-021-055-MIZ076-KYZ091-ILZ014-INZ047-
MNZ060-ONZ431-132300-

...Gateway Observations for Savannah International...

CITY           SKY/WX    TMP DP  RH WIND       PRES   REMARKS
Savannah Arpt  PTSUNNY   84  68  58 E9        30.01F
Atlanta        PTSUNNY   82  65  56 SE7       30.06F
Charlotte      MOSUNNY   84  57  39 N9        30.07F
Dallas DFW     MOSUNNY   96  61  31 CALM      29.95F HX  96
Houston Bush   PTSUNNY   89  75  63 SE20G28   29.92S HX  99
Wash National  MOSUNNY   81  48  31 E5        30.06F
Wash Dulles    PTSUNNY   81  50  33 NW8       30.08S
Baltimore      MOSUNNY   84  48  28 NW7       30.05F
Philadelphia   MOSUNNY   83  45  26 CALM      30.04F
Newark         MOSUNNY   80  46  30 N7G17     30.03F
Laguardia      MOSUNNY   79  46  31 NE8       30.04S
J F K          MOSUNNY   80  47  31 VRB5      30.05S
Boston         MOSUNNY   67  58  72 SE6       30.05R
Pittsburg      CLOUDY    74  47  38 NW6       30.10F
Akron          PTSUNNY   75  52  44 W6        30.12S
Cleveland      CLOUDY    73  53  49 NE7       30.10F
Cincinnati     PTSUNNY   80  58  46 S6        30.06F
Columbus       PTSUNNY   76  56  50 E3        30.08F
Detroit        CLOUDY    69  51  52 SW8       30.12S
Chicago O'Hare PTSUNNY   78  59  51 S13       29.96S
Minneapolis    CLOUDY    70  59  68 N12G26    30.01R
Indianapolis   CLOUDY    76  56  49 S8        30.04F
Toronto Canada PTSUNNY   77  41  27 SE9       30.07F